Location: ActonStarParty
(42.4766°N, 71.4538°W)
Time: 03:17:05
(UTC-05:00)

Amateur Radio Satellites - All Passes

Search period start: 29 January 2015 02:47
Search period end: 30 January 2015 02:47
Location: ActonStarParty, 42.4766°N, 71.4538°W

Satellite Date Start Highest point End Downlink Frequencies (MHz)
Time Altitude Azimuth
ITAMSAT 1 29 Jan 02:54:01 02:58:59 44° 290° (WNW) 03:03:55 435.822/435.867
GONETS M04 29 Jan 02:59:37 03:06:44 26° 297° (WNW) 03:13:34
M-CUBED/EXP-1 PRIME 29 Jan 03:05:30 03:08:17 17° 261° (W) 03:10:50 437.505
AIST 2 29 Jan 03:19:49 03:24:00 53° 307° (NW) 03:28:14 435.215
PCSat 29 Jan 03:26:14 03:31:00 33° 111° (ESE) 03:35:52 145.827
BEESAT 2 29 Jan 03:27:08 03:30:29 23° 316° (NW) 03:33:49 435.950
DANDE 29 Jan 03:28:29 03:36:13 50° 91° (E) 03:44:30 436.750
BEESAT 3 29 Jan 03:42:32 03:45:13 16° 320° (NW) 03:47:51 437.485
JAS-2 29 Jan 03:46:31 03:51:27 30° 95° (E) 03:56:58 435.910
Gurwin Techsat 1B 29 Jan 03:49:40 03:53:44 22° 296° (WNW) 03:57:40 435.225
ISS 29 Jan 03:52:05 03:55:24 87° 32° (NNE) 03:58:43 145.825
CUSAT 1 29 Jan 03:59:00 04:07:13 85° 99° (E) 04:15:41 437.405
MOZHAYETS 4 29 Jan 04:11:43 04:16:13 53° 261° (W) 04:20:44
HORYU 2 29 Jan 04:16:14 04:19:57 26° 293° (WNW) 04:23:34 437.375
RS-15 29 Jan 04:18:13 04:28:44 59° 115° (ESE) 04:39:24 29.354- 29.394
AO-7 29 Jan 04:23:31 04:31:55 89° 289° (WNW) 04:40:14 29.400- 29.500
STRAND 1 29 Jan 04:27:01 04:30:00 16° 62° (ENE) 04:33:12 437.568
CUBESAT XI-V 29 Jan 04:27:41 04:30:47 19° 65° (ENE) 04:34:02 437.345
PRISM 29 Jan 04:37:37 04:41:13 31° 70° (ENE) 04:44:52 437.425
Cubesat XI-IV 29 Jan 04:55:47 04:59:00 16° 89° (E) 05:02:27 437.490
YUBILEINY 29 Jan 05:07:38 05:14:51 29° 65° (ENE) 05:22:19 435.215
PCSat 29 Jan 05:09:20 05:14:23 38° 309° (NW) 05:19:26 145.827
DANDE 29 Jan 05:12:02 05:19:54 43° 291° (WNW) 05:27:58 436.750
CUTE-I 29 Jan 05:15:05 05:19:22 25° 93° (E) 05:23:47 437.470
ISS 29 Jan 05:30:16 05:31:30 11° 229° (SW) 05:32:36 145.825
JAS-2 29 Jan 05:31:26 05:36:42 41° 290° (WNW) 05:42:27 435.910
CUSAT 1 29 Jan 05:44:41 05:51:20 24° 299° (WNW) 05:57:41 437.405
CUBESAT XI-V 29 Jan 06:03:29 06:07:56 48° 262° (W) 06:12:25 437.345
STRAND 1 29 Jan 06:03:38 06:08:43 69° 259° (WSW) 06:13:50 437.568
PRISM 29 Jan 06:13:33 06:16:49 22° 266° (W) 06:20:00 437.425
AO-7 29 Jan 06:17:38 06:23:47 23° 308° (NW) 06:29:38 29.400- 29.500
RS-15 29 Jan 06:31:06 06:41:31 47° 319° (NW) 06:52:02 29.354- 29.394
Cubesat XI-IV 29 Jan 06:34:20 06:39:41 66° 287° (WNW) 06:45:00 437.490
CUTE-I 29 Jan 06:54:35 06:59:42 45° 290° (WNW) 07:04:46 437.470
YUBILEINY 29 Jan 07:03:47 07:12:28 66° 267° (W) 07:21:07 435.215
GOMX 1 29 Jan 07:22:23 07:24:54 14° 85° (E) 07:27:38 467.674
BRITE-PL 29 Jan 07:24:50 07:29:05 22° 89° (E) 07:33:21 437.365/2234.400
CANX-2 29 Jan 07:30:02 07:31:55 13° 88° (E) 07:34:01 2200.000
DOVE 4 29 Jan 07:35:50 07:37:47 12° 84° (E) 07:40:00 437.250
CUTE 1.7 + AOD 2 29 Jan 07:53:09 07:56:23 22° 93° (E) 07:59:42 437.475
VERMONT LUNAR 29 Jan 08:00:57 08:03:34 20° 154° (SSE) 08:06:13 437.305
HO-68 29 Jan 08:22:02 08:28:59 52° 100° (E) 08:35:56 435.675
SEEDS 29 Jan 08:23:30 08:27:27 39° 97° (E) 08:31:23 437.485
ANTELSAT 29 Jan 08:23:51 08:26:55 18° 65° (ENE) 08:30:08 437.575/2403.000
TIGRISAT 29 Jan 08:31:18 08:34:42 21° 66° (ENE) 08:38:12 435.000
CUBEBUG 2 29 Jan 08:36:27 08:38:56 15° 88° (E) 08:41:35 437.445
NANOSAT C BR1 29 Jan 08:43:56 08:46:21 15° 64° (ENE) 08:48:56 145.865
ZACube-1 29 Jan 08:45:11 08:46:49 12° 87° (E) 08:48:42 437.345
RS-15 29 Jan 08:49:18 08:57:39 23° 351° (N) 09:06:06 29.354- 29.394
COMPASS 1 29 Jan 08:50:05 08:54:15 66° 101° (E) 08:58:23 437.405
DX 1 29 Jan 08:50:24 08:53:08 16° 91° (E) 08:56:01 434.975-435.025
FUNcube-1 29 Jan 08:56:20 08:59:00 16° 89° (E) 09:01:49 145.935
QB50P2 29 Jan 08:57:18 09:00:30 21° 67° (ENE) 09:03:49 145.880/145.840
GOMX 1 29 Jan 08:58:20 09:03:48 79° 286° (WNW) 09:09:01 467.674
PHONESAT 2.4 29 Jan 08:58:36 09:01:43 28° 158° (SSE) 09:04:52 2401.200-2431.200
CINEMA 3 29 Jan 08:58:57 09:03:37 45° 97° (E) 09:08:05 145.822/145.860
BRITE-PL 29 Jan 09:02:25 09:07:59 54° 288° (WNW) 09:13:18 437.365/2234.400
CANX-2 29 Jan 09:04:10 09:08:19 54° 286° (WNW) 09:12:25 2200.000
YUBILEINY 29 Jan 09:04:45 09:07:46 12° 285° (WNW) 09:10:04 435.215
QB50P1 29 Jan 09:06:19 09:09:49 26° 68° (ENE) 09:13:25 145.935-145.965
DOVE 4 29 Jan 09:11:06 09:16:22 80° 285° (WNW) 09:21:21 437.250
DELFI C3 29 Jan 09:12:24 09:16:11 38° 97° (E) 09:19:59 145.870
AISAT 29 Jan 09:15:27 09:16:59 12° 88° (E) 09:18:48 437.250
UWE-3 29 Jan 09:15:34 09:19:36 32° 95° (E) 09:23:33 435.000/436.395/437.385
AAUSAT CUBESAT 2 29 Jan 09:16:30 09:20:39 70° 285° (WNW) 09:24:46 437.432
BUGSAT 1 29 Jan 09:18:38 09:22:01 26° 68° (ENE) 09:25:31 437.445
POLYITAN 1 29 Jan 09:20:33 09:24:29 36° 71° (ENE) 09:28:30 437.675
UNISAT 6 29 Jan 09:22:39 09:27:20 66° 74° (ENE) 09:32:01 437.425
CUTE 1.7 + AOD 2 29 Jan 09:28:37 09:32:26 32° 289° (WNW) 09:36:11 437.475
Oscar 11 29 Jan 09:29:14 09:33:34 76° 102° (ESE) 09:37:52 145.826/435.025
VERMONT LUNAR 29 Jan 09:37:53 09:41:18 52° 170° (S) 09:44:44 437.305
POPSAT HIP 1 29 Jan 09:40:19 09:44:31 59° 74° (ENE) 09:48:46 437.405
VELOX 1 29 Jan 09:42:11 09:45:41 22° 93° (E) 09:49:16 145.980
DUCHIFAT 1 29 Jan 09:43:00 09:47:13 63° 74° (ENE) 09:51:28 145.980
CUBEBUG 1 29 Jan 09:52:20 09:53:49 12° 88° (E) 09:55:33 437.445
ANTELSAT 29 Jan 09:58:45 10:03:22 53° 261° (W) 10:07:59 437.575/2403.000
SO-50 29 Jan 09:59:01 10:03:31 62° 120° (ESE) 10:08:12 436.795
50 SAT 29 Jan 09:59:45 10:03:21 31° 96° (E) 10:06:57 437.505
SEEDS 29 Jan 10:00:03 10:03:02 19° 293° (WNW) 10:05:54 437.485
AIST 2 29 Jan 10:03:29 10:06:21 17° 40° (NE) 10:09:17 435.215
UKube-1 29 Jan 10:04:33 10:08:57 82° 283° (WNW) 10:13:19 .
TIGRISAT 29 Jan 10:06:38 10:11:10 45° 262° (W) 10:15:42 435.000
BEESAT 2 29 Jan 10:07:28 10:11:18 34° 49° (NE) 10:15:07 435.950
HO-68 29 Jan 10:10:13 10:16:28 33° 298° (WNW) 10:22:36 435.675
CUBEBUG 2 29 Jan 10:11:36 10:16:07 54° 287° (WNW) 10:20:27 437.445
NANOSAT C BR1 29 Jan 10:17:40 10:21:51 53° 260° (W) 10:26:05 145.865
ZACube-1 29 Jan 10:19:21 10:23:46 63° 286° (WNW) 10:28:03 437.345
BEESAT 3 29 Jan 10:21:30 10:25:35 51° 53° (NE) 10:29:35 437.485
HUMSAT D 29 Jan 10:22:35 10:26:52 79° 102° (ESE) 10:31:02 437.325/437.525
DX 1 29 Jan 10:25:27 10:29:42 47° 288° (WNW) 10:33:55 434.975-435.025
COMPASS 1 29 Jan 10:27:52 10:29:30 12° 297° (WNW) 10:30:55 437.405
FUNcube-1 29 Jan 10:31:27 10:35:44 47° 288° (WNW) 10:39:52 145.935
QB50P2 29 Jan 10:32:16 10:36:15 36° 263° (W) 10:40:13 145.880/145.840
PHONESAT 2.4 29 Jan 10:36:25 10:39:59 60° 174° (S) 10:43:35 2401.200-2431.200
CINEMA 3 29 Jan 10:36:50 10:40:31 21° 295° (WNW) 10:43:59 145.822/145.860
GOMX 1 29 Jan 10:38:57 10:41:04 12° 301° (WNW) 10:42:52 467.674
QB50P1 29 Jan 10:41:54 10:45:39 29° 265° (W) 10:49:24 145.935-145.965
Oscar 19 29 Jan 10:42:43 10:43:32 10° 58° (ENE) 10:44:38 437.125/150
DELFI C3 29 Jan 10:48:25 10:51:12 18° 293° (WNW) 10:53:51 145.870
AISAT 29 Jan 10:49:41 10:54:12 69° 286° (WNW) 10:58:41 437.250
DOVE 4 29 Jan 10:51:31 10:53:17 11° 301° (WNW) 10:54:46 437.250
UWE-3 29 Jan 10:52:19 10:56:03 25° 293° (WNW) 10:59:37 435.000/436.395/437.385
ESTCUBE 1 29 Jan 10:52:24 10:56:53 56° 101° (E) 11:01:20 437.505/2401.250
BUGSAT 1 29 Jan 10:53:58 10:57:29 26° 265° (W) 11:01:00 437.445
POLYITAN 1 29 Jan 10:57:19 11:00:35 20° 268° (W) 11:03:47 437.675
UNISAT 6 29 Jan 11:02:13 11:04:39 13° 272° (W) 11:06:49 437.425
RS-15 29 Jan 11:05:24 11:14:50 30° 26° (NNE) 11:24:45 29.354- 29.394
Oscar 11 29 Jan 11:07:50 11:09:14 11° 298° (WNW) 11:10:23 145.826/435.025
GONETS M04 29 Jan 11:09:58 11:17:48 37° 69° (ENE) 11:25:45
SPROUT 29 Jan 11:12:22 11:15:41 21° 93° (E) 11:19:03 437.525
AIST 1 29 Jan 11:15:10 11:19:25 72° 279° (W) 11:23:42
VERMONT LUNAR 29 Jan 11:15:48 11:19:16 59° 187° (S) 11:22:45 437.305
VELOX 1 29 Jan 11:18:16 11:22:24 36° 290° (WNW) 11:26:28 145.980
POPSAT HIP 1 29 Jan 11:18:55 11:20:54 13° 272° (W) 11:22:40 437.405
DUCHIFAT 1 29 Jan 11:21:55 11:23:35 12° 272° (W) 11:25:02 145.980
CUBEBUG 1 29 Jan 11:26:19 11:30:45 68° 285° (WNW) 11:35:10 437.445
50 SAT 29 Jan 11:35:11 11:38:21 21° 292° (WNW) 11:41:23 437.505
SO-50 29 Jan 11:40:58 11:44:32 21° 320° (NW) 11:48:07 436.795
AIST 2 29 Jan 11:41:11 11:45:27 67° 239° (WSW) 11:49:38 435.215
BEESAT 2 29 Jan 11:45:57 11:49:24 25° 246° (WSW) 11:52:46 435.950
TISAT 1 29 Jan 11:48:50 11:53:02 51° 99° (E) 11:57:13 437.305
Gurwin Techsat 1B 29 Jan 11:54:34 11:56:38 13° 59° (ENE) 11:58:57 435.225
BEESAT 3 29 Jan 12:00:46 12:03:21 16° 249° (WSW) 12:05:47 437.485
HUMSAT D 29 Jan 12:01:10 12:02:05 10° 298° (WNW) 12:02:46 437.325/437.525
PCSat 29 Jan 12:13:03 12:17:56 33° 49° (NE) 12:22:51 145.827
PHONESAT 2.4 29 Jan 12:14:51 12:18:25 53° 191° (S) 12:21:59 2401.200-2431.200
SWISSCUBE 29 Jan 12:15:08 12:18:08 17° 90° (E) 12:21:18 437.505
Oscar 19 29 Jan 12:16:55 12:22:05 74° 75° (ENE) 12:27:19 437.125/150
BEESAT 29 Jan 12:30:26 12:34:05 22° 93° (E) 12:37:52 436.000
ESTCUBE 1 29 Jan 12:30:33 12:33:22 16° 296° (WNW) 12:36:01 437.505/2401.250
ITAMSAT 1 29 Jan 12:33:37 12:38:20 39° 69° (ENE) 12:43:10 435.822/435.867
ITUPSAT 1 29 Jan 12:34:15 12:38:03 24° 93° (E) 12:41:57 437.325
SPROUT 29 Jan 12:47:55 12:51:55 35° 289° (WNW) 12:55:51 437.525
VERMONT LUNAR 29 Jan 12:54:04 12:57:06 27° 203° (SSW) 13:00:07 437.305
CUSAT 1 29 Jan 13:02:23 13:03:25 11° 49° (NE) 13:04:47 437.405
GONETS M04 29 Jan 13:06:39 13:14:57 50° 270° (W) 13:23:09
RS-15 29 Jan 13:18:06 13:29:28 77° 54° (NE) 13:41:22 29.354- 29.394
TISAT 1 29 Jan 13:25:49 13:28:31 16° 295° (WNW) 13:31:02 437.305
Gurwin Techsat 1B 29 Jan 13:30:35 13:35:54 86° 76° (ENE) 13:41:15 435.225
AO-7 29 Jan 13:32:03 13:38:58 31° 57° (ENE) 13:46:05 29.400- 29.500
HORYU 2 29 Jan 13:38:32 13:42:31 32° 69° (ENE) 13:46:33 437.375
SWISSCUBE 29 Jan 13:51:43 13:56:23 53° 288° (WNW) 14:01:03 437.505
PHONESAT 2.4 29 Jan 13:53:47 13:56:37 21° 206° (SSW) 13:59:24 2401.200-2431.200
PCSat 29 Jan 13:56:24 14:01:27 39° 248° (WSW) 14:06:25 145.827
Oscar 19 29 Jan 13:59:23 14:02:07 14° 272° (W) 14:04:34 437.125/150
JAS-2 29 Jan 14:03:34 14:05:27 12° 60° (ENE) 14:07:35 435.910
BEESAT 29 Jan 14:07:40 14:12:08 40° 290° (WNW) 14:16:35 436.000
ITUPSAT 1 29 Jan 14:11:40 14:16:06 38° 290° (WNW) 14:20:30 437.325
ITAMSAT 1 29 Jan 14:13:37 14:17:59 27° 266° (W) 14:22:19 435.822/435.867
DANDE 29 Jan 14:13:42 14:19:55 36° 66° (ENE) 14:24:46 436.750
STARS 29 Jan 14:19:22 14:23:32 38° 97° (E) 14:27:41 437.465
KKS-1 29 Jan 14:25:51 14:30:21 69° 103° (ESE) 14:34:48 437.445
CUSAT 1 29 Jan 14:42:03 14:48:27 70° 77° (ENE) 14:53:08 437.405
M-CUBED/EXP-1 PRIME 29 Jan 14:45:53 14:48:30 22° 101° (E) 14:51:14 437.505
Gurwin Techsat 1B 29 Jan 15:14:38 15:16:42 12° 274° (W) 15:18:26 435.225
HORYU 2 29 Jan 15:15:29 15:19:15 25° 266° (W) 15:22:57 437.375
AUBIESAT-1 29 Jan 15:18:27 15:21:42 52° 105° (ESE) 15:25:04 437.475
O/OREOS (USA 219) 29 Jan 15:19:45 15:23:46 34° 106° (ESE) 15:27:54 437.305
AO-7 29 Jan 15:22:58 15:31:17 67° 256° (WSW) 15:39:38 29.400- 29.500
RS-15 29 Jan 15:31:27 15:41:05 31° 254° (WSW) 15:50:40 29.354- 29.394
JAS-2 29 Jan 15:44:29 15:50:01 89° 251° (WSW) 15:55:15 435.910
STARS 29 Jan 15:56:23 15:59:49 21° 294° (WNW) 16:03:07 437.465
DANDE 29 Jan 15:57:25 16:03:18 33° 274° (W) 16:07:48 436.750
KKS-1 29 Jan 16:04:18 16:06:30 13° 298° (WNW) 16:08:30 437.445
MOZHAYETS 4 29 Jan 16:06:25 16:10:33 33° 96° (E) 16:14:44
Cubesat XI-IV 29 Jan 16:18:06 16:22:36 30° 66° (ENE) 16:27:13 437.490
M-CUBED/EXP-1 PRIME 29 Jan 16:20:56 16:23:29 20° 296° (WNW) 16:26:02 437.505
CUSAT 1 29 Jan 16:27:07 16:30:18 14° 282° (WNW) 16:32:50 437.405
CUTE-I 29 Jan 16:37:28 16:42:25 43° 70° (ENE) 16:47:28 437.470
SO-50 29 Jan 16:50:41 16:53:13 14° 33° (NNE) 16:55:55 436.795
O/OREOS (USA 219) 29 Jan 16:59:32 17:03:18 25° 304° (NW) 17:07:01 437.305
AO-7 29 Jan 17:22:56 17:25:56 12° 277° (W) 17:28:11 29.400- 29.500
MOZHAYETS 4 29 Jan 17:43:56 17:47:42 25° 292° (WNW) 17:51:22
PRISM 29 Jan 17:54:43 17:58:44 46° 99° (E) 18:02:45 437.425
Cubesat XI-IV 29 Jan 17:57:41 18:02:37 37° 263° (W) 18:07:33 437.490
CUBESAT XI-V 29 Jan 17:59:31 18:03:55 40° 97° (E) 18:08:21 437.345
YUBILEINY 29 Jan 18:10:11 18:17:19 31° 84° (E) 18:24:41 435.215
STRAND 1 29 Jan 18:13:41 18:18:27 38° 97° (E) 18:23:16 437.568
CUTE-I 29 Jan 18:18:18 18:22:43 25° 267° (W) 18:27:02 437.470
CANX-2 29 Jan 18:24:54 18:26:20 12° 63° (ENE) 18:27:59 2200.000
SO-50 29 Jan 18:29:50 18:34:45 68° 54° (NE) 18:39:40 436.795
GOMX 1 29 Jan 18:30:53 18:34:01 17° 62° (ENE) 18:37:27 467.674
BRITE-PL 29 Jan 18:36:07 18:40:14 25° 65° (ENE) 18:44:41 437.365/2234.400
DOVE 4 29 Jan 18:41:46 18:44:36 15° 61° (ENE) 18:47:41 437.250
CUTE 1.7 + AOD 2 29 Jan 18:47:22 18:50:17 19° 67° (ENE) 18:53:19 437.475
HO-68 29 Jan 18:51:17 18:57:51 42° 65° (ENE) 19:04:30 435.675
SEEDS 29 Jan 19:16:32 19:20:17 31° 71° (ENE) 19:24:05 437.485
PRISM 29 Jan 19:31:19 19:33:56 16° 295° (WNW) 19:36:27 437.425
CUBEBUG 2 29 Jan 19:35:33 19:38:22 16° 64° (ENE) 19:41:22 437.445
CUBESAT XI-V 29 Jan 19:37:29 19:41:10 23° 293° (WNW) 19:44:46 437.345
COMPASS 1 29 Jan 19:42:08 19:46:13 49° 73° (ENE) 19:50:19 437.405
ZACube-1 29 Jan 19:42:17 19:44:14 13° 63° (ENE) 19:46:24 437.345
DX 1 29 Jan 19:47:12 19:49:55 17° 64° (ENE) 19:52:47 434.975-435.025
STRAND 1 29 Jan 19:53:11 19:57:32 28° 294° (WNW) 20:01:48 437.568
FUNcube-1 29 Jan 19:53:13 19:55:58 16° 64° (ENE) 19:58:54 145.935
CANX-2 29 Jan 19:57:29 20:01:47 72° 259° (WSW) 20:06:05 2200.000
CINEMA 3 29 Jan 20:00:48 20:05:30 46° 72° (ENE) 20:10:20 145.822/145.860
DELFI C3 29 Jan 20:01:34 20:05:02 27° 70° (ENE) 20:08:32 145.870
YUBILEINY 29 Jan 20:05:09 20:13:42 59° 284° (WNW) 20:22:17 435.215
GOMX 1 29 Jan 20:06:28 20:11:32 71° 259° (W) 20:16:56 467.674
AAUSAT CUBESAT 2 29 Jan 20:07:58 20:12:11 85° 77° (ENE) 20:16:25 437.432
SO-50 29 Jan 20:11:45 20:14:52 16° 250° (WSW) 20:17:46 436.795
UWE-3 29 Jan 20:13:15 20:17:19 31° 69° (ENE) 20:21:28 435.000/436.395/437.385
BRITE-PL 29 Jan 20:13:38 20:18:27 44° 264° (W) 20:23:40 437.365/2234.400
AISAT 29 Jan 20:14:37 20:16:33 13° 62° (ENE) 20:18:42 437.250
DOVE 4 29 Jan 20:16:40 20:21:43 77° 258° (WSW) 20:27:03 437.250
CUTE 1.7 + AOD 2 29 Jan 20:21:53 20:25:58 42° 262° (W) 20:30:03 437.475
Oscar 11 29 Jan 20:24:28 20:28:46 63° 75° (ENE) 20:33:06 145.826/435.025
ISS 29 Jan 20:33:26 20:35:45 18° 134° (SE) 20:38:09 145.825
HO-68 29 Jan 20:38:58 20:45:38 40° 263° (W) 20:52:14 435.675
VELOX 1 29 Jan 20:40:57 20:44:23 23° 67° (ENE) 20:47:55 145.980
50 SAT 29 Jan 20:48:12 20:51:26 23° 68° (ENE) 20:54:44 437.505
CUBEBUG 1 29 Jan 20:50:08 20:51:34 12° 62° (ENE) 20:53:13 437.445
SEEDS 29 Jan 20:52:43 20:56:11 23° 267° (W) 20:59:33 437.485
UKube-1 29 Jan 21:00:03 21:04:23 88° 254° (WSW) 21:08:45 .
CUBEBUG 2 29 Jan 21:09:54 21:14:37 62° 260° (W) 21:19:24 437.445
HUMSAT D 29 Jan 21:14:59 21:19:16 60° 74° (ENE) 21:23:36 437.325/437.525
ZACube-1 29 Jan 21:15:28 21:20:04 75° 257° (WSW) 21:24:43 437.345
UNISAT 6 29 Jan 21:16:25 21:18:16 13° 88° (E) 21:20:19 437.425
COMPASS 1 29 Jan 21:19:51 21:22:17 14° 270° (W) 21:24:33 437.405
DX 1 29 Jan 21:21:36 21:25:50 49° 260° (W) 21:30:06 434.975-435.025
AIST 1 29 Jan 21:21:59 21:25:46 29° 74° (ENE) 21:29:37
FUNcube-1 29 Jan 21:27:23 21:31:55 57° 261° (W) 21:36:29 145.935
DELFI C3 29 Jan 21:36:54 21:40:18 24° 266° (W) 21:43:36 145.870
CINEMA 3 29 Jan 21:39:07 21:42:58 22° 269° (W) 21:46:45 145.822/145.860
AISAT 29 Jan 21:48:15 21:52:41 70° 258° (WSW) 21:57:10 437.250
UWE-3 29 Jan 21:49:45 21:53:51 29° 266° (W) 21:57:56 435.000/436.395/437.385
ANTELSAT 29 Jan 21:50:52 21:54:46 30° 95° (E) 21:58:37 437.575/2403.000
ESTCUBE 1 29 Jan 21:52:44 21:57:07 56° 73° (ENE) 22:01:32 437.505/2401.250
TIGRISAT 29 Jan 21:58:12 22:02:17 35° 96° (E) 22:06:17 435.000
NANOSAT C BR1 29 Jan 22:02:49 22:06:16 24° 94° (E) 22:09:46 145.865
Oscar 11 29 Jan 22:03:41 22:05:28 12° 272° (W) 22:07:01 145.826/435.025
SPROUT 29 Jan 22:07:49 22:10:49 19° 66° (ENE) 22:13:56 437.525
ISS 29 Jan 22:08:47 22:12:02 56° 331° (NNW) 22:15:17 145.825
YUBILEINY 29 Jan 22:10:00 22:13:02 12° 309° (NW) 22:15:26 435.215
VELOX 1 29 Jan 22:16:43 22:20:49 35° 263° (W) 22:24:55 145.980
QB50P2 29 Jan 22:17:06 22:21:02 34° 96° (E) 22:24:58 145.880/145.840
50 SAT 29 Jan 22:22:44 22:26:26 31° 264° (W) 22:30:07 437.505
CUBEBUG 1 29 Jan 22:23:04 22:27:24 75° 258° (WSW) 22:31:48 437.445
QB50P1 29 Jan 22:26:08 22:30:14 42° 98° (E) 22:34:20 145.935-145.965
BUGSAT 1 29 Jan 22:35:07 22:39:11 41° 98° (E) 22:43:15 437.445
POLYITAN 1 29 Jan 22:41:10 22:45:29 64° 101° (ESE) 22:49:44 437.675
TISAT 1 29 Jan 22:41:58 22:45:56 41° 72° (ENE) 22:50:00 437.305
UNISAT 6 29 Jan 22:51:11 22:55:37 61° 286° (WNW) 22:59:53 437.425
HUMSAT D 29 Jan 22:53:30 22:55:33 13° 272° (W) 22:57:22 437.325/437.525
AIST 1 29 Jan 22:59:48 23:03:21 24° 270° (W) 23:06:50
POPSAT HIP 1 29 Jan 23:00:54 23:05:15 79° 283° (WNW) 23:09:32 437.405
DUCHIFAT 1 29 Jan 23:03:14 23:07:33 75° 285° (WNW) 23:11:49 145.980
SWISSCUBE 29 Jan 23:22:32 23:26:05 22° 65° (ENE) 23:29:45 437.505
ANTELSAT 29 Jan 23:27:46 23:31:31 26° 292° (WNW) 23:35:06 437.575/2403.000
ESTCUBE 1 29 Jan 23:31:54 23:34:27 14° 271° (W) 23:36:47 437.505/2401.250
TIGRISAT 29 Jan 23:35:21 23:38:52 23° 293° (WNW) 23:42:15 435.000
BEESAT 29 Jan 23:37:42 23:41:41 28° 68° (ENE) 23:45:46 436.000
NANOSAT C BR1 29 Jan 23:38:22 23:42:13 31° 290° (WNW) 23:45:58 145.865
ITUPSAT 1 29 Jan 23:41:51 23:45:56 30° 68° (ENE) 23:50:07 437.325
SPROUT 29 Jan 23:42:34 23:46:39 41° 262° (W) 23:50:47 437.525
ISS 29 Jan 23:46:37 23:49:04 19° 349° (N) 23:51:31 145.825
O/OREOS (USA 219) 29 Jan 23:52:14 23:52:48 10° 46° (NE) 23:53:35 437.305
QB50P2 29 Jan 23:53:24 23:56:48 22° 293° (WNW) 00:00:05 145.880/145.840
QB50P1 30 Jan 00:02:49 00:05:52 19° 294° (WNW) 00:08:47 145.935-145.965
BUGSAT 1 30 Jan 00:11:20 00:14:26 19° 294° (WNW) 00:17:24 437.445
GONETS M04 30 Jan 00:11:55 00:19:50 41° 88° (E) 00:27:51
POLYITAN 1 30 Jan 00:18:49 00:20:57 13° 297° (WNW) 00:22:54 437.675
TISAT 1 30 Jan 00:19:05 00:22:01 17° 269° (W) 00:24:50 437.305
Oscar 19 30 Jan 00:28:33 00:32:41 25° 93° (E) 00:36:53 437.125/150
ITAMSAT 1 30 Jan 00:47:34 00:49:40 13° 87° (E) 00:52:04 435.822/435.867
SWISSCUBE 30 Jan 00:59:11 01:03:43 42° 262° (W) 01:08:15 437.505
BEESAT 30 Jan 01:15:12 01:19:29 32° 264° (W) 01:23:45 436.000
STARS 30 Jan 01:17:06 01:21:11 37° 70° (ENE) 01:25:20 437.465
ITUPSAT 1 30 Jan 01:19:38 01:23:50 30° 265° (W) 01:28:00 437.325
ISS 30 Jan 01:24:03 01:26:27 18° 9° (N) 01:28:52 145.825
KKS-1 30 Jan 01:24:33 01:29:00 68° 74° (ENE) 01:33:30 437.445
O/OREOS (USA 219) 30 Jan 01:28:32 01:33:09 76° 66° (ENE) 01:37:44 437.305
M-CUBED/EXP-1 PRIME 30 Jan 01:35:22 01:39:07 40° 68° (ENE) 01:42:37 437.505
BEESAT 2 30 Jan 01:40:31 01:44:31 52° 119° (ESE) 01:48:36 435.950
AIST 2 30 Jan 01:40:42 01:44:00 22° 113° (ESE) 01:47:24 435.215
Gurwin Techsat 1B 30 Jan 01:46:30 01:51:14 33° 95° (E) 01:56:01 435.225
BEESAT 3 30 Jan 01:53:47 01:57:53 83° 122° (ESE) 02:02:04 437.485
Oscar 19 30 Jan 02:07:23 02:12:14 41° 291° (WNW) 02:17:00 437.125/150
AUBIESAT-1 30 Jan 02:07:45 02:11:45 89° 80° (E) 02:15:26 437.475
GONETS M04 30 Jan 02:08:19 02:16:40 45° 288° (WNW) 02:24:54
CUSAT 1 30 Jan 02:08:35 02:13:34 18° 82° (E) 02:19:02 437.405
ITAMSAT 1 30 Jan 02:24:39 02:29:55 80° 285° (WNW) 02:35:09 435.822/435.867
